Date String (YYYY-MM-DD hh:mm:ss) UTC,Instrument flags,Ambient pressure (hPa),Sample flow (lpm),Bypass flow (lpm),Sample temperature (°C),Ambient temperature (°C),ASC tube jacket temperature (°C),LED temperature (°C),Box temperature (°C),Sample RH (%),Span deviation,Mass concentration (μg/m³),Mass concentration (μg/m³),Mass concentration (μg/m³)
DateTimeUTC,F1_M11,P_M11,Q1_M11,Q2_M11,T1_M11,T2_M11,T3_M11,T4_M11,T5_M11,U1_M11,ZSPAN_M11,X0_M11,X2_M11,X1_M11
2022-01-17 11:00:00,,0822.3,4.99,0.00,22.5,21.8,00.0,31.5,24.3,10.6,0000.0,0007.06,0003.68,0003.36
2022-01-17 11:01:00,,0822.4,5.01,0.00,22.5,21.8,00.0,31.5,24.2,10.6,0000.0,0007.19,0003.72,0003.38
2022-01-17 11:02:00,,0822.5,5.00,0.00,22.5,21.7,00.0,31.5,24.2,10.6,0000.0,0007.29,0003.73,0003.38
2022-01-17 11:03:00,,0822.6,5.00,0.00,22.4,21.7,00.0,31.5,24.2,10.7,0000.0,0007.40,0003.76,0003.39
2022-01-17 11:04:00,,0822.7,5.01,0.00,22.4,21.7,00.0,31.5,24.2,10.7,0000.0,0007.57,0003.81,0003.40
2022-01-17 11:05:00,,0822.6,5.00,0.00,22.4,21.7,00.0,31.5,24.1,10.7,0000.0,0007.12,0003.80,0003.39
2022-01-17 11:06:00,,0822.5,4.99,0.00,22.4,21.7,00.0,31.5,24.1,10.8,0000.0,0006.93,0003.77,0003.38
2022-01-17 11:07:00,,0822.5,5.01,0.00,22.4,21.6,00.0,31.4,24.1,10.7,0000.0,0007.10,0003.78,0003.38
2022-01-17 11:08:00,,0822.4,5.00,0.00,22.4,21.6,00.0,31.4,24.1,10.7,0000.0,0006.81,0003.80,0003.38
2022-01-17 11:09:00,,0822.4,4.99,0.00,22.4,21.9,00.0,31.4,24.1,10.7,0000.0,0006.55,0003.79,0003.38
2022-01-17 11:10:00,,0822.5,5.00,0.00,22.5,22.5,00.0,31.4,24.3,10.6,0000.0,0006.65,0003.79,0003.38
2022-01-17 11:11:00,,0822.5,5.00,0.00,22.6,23.2,00.0,31.5,24.5,10.5,0000.0,0006.71,0003.78,0003.37
2022-01-17 11:12:00,,0822.5,5.00,0.00,22.7,23.0,00.0,31.5,24.6,10.5,0000.0,0007.00,0003.74,0003.36
2022-01-17 11:13:00,,0822.4,5.00,0.00,22.7,22.8,00.0,31.5,24.6,10.5,0000.0,0007.59,0003.75,0003.35
2022-01-17 11:14:00,,0822.4,5.00,0.00,22.7,22.6,00.0,31.5,24.5,10.5,0000.0,0007.99,0003.74,0003.34
2022-01-17 11:15:00,,0822.5,4.99,0.00,22.6,22.4,00.0,31.5,24.4,10.5,0000.0,0008.30,0003.74,0003.33
2022-01-17 11:16:00,,0822.4,5.01,0.00,22.6,22.3,00.0,31.5,24.4,10.5,0000.0,0008.21,0003.72,0003.33
2022-01-17 11:17:00,,0822.5,5.00,0.00,22.6,22.3,00.0,31.5,24.4,10.5,0000.0,0008.26,0003.72,0003.32
2022-01-17 11:18:00,,0822.5,5.00,0.00,22.6,22.2,00.0,31.5,24.4,10.6,0000.0,0008.22,0003.71,0003.31
2022-01-17 11:19:00,,0822.5,5.01,0.00,22.6,22.1,00.0,31.5,24.4,10.6,0000.0,0008.15,0003.68,0003.31
2022-01-17 11:20:00,,0822.5,5.00,0.00,22.6,22.0,00.0,31.5,24.3,10.6,0000.0,0008.21,0003.69,0003.32
2022-01-17 11:21:00,,0822.6,4.99,0.00,22.5,22.0,00.0,31.5,24.2,10.6,0000.0,0008.79,0003.69,0003.31
2022-01-17 11:22:00,,0822.5,4.99,0.00,22.5,21.9,00.0,31.5,24.2,10.6,0000.0,0009.31,0003.69,0003.31
2022-01-17 11:23:00,,0822.4,5.01,0.00,22.5,21.9,00.0,31.5,24.2,10.6,0000.0,0009.31,0003.72,0003.31
2022-01-17 11:24:00,,0822.4,4.99,0.00,22.5,21.8,00.0,31.5,24.2,10.6,0000.0,0008.86,0003.72,0003.31
2022-01-17 11:25:00,,0822.3,5.00,0.00,22.5,21.8,00.0,31.5,24.2,10.6,0000.0,0008.71,0003.73,0003.31
2022-01-17 11:26:00,,0822.3,5.02,0.00,22.5,21.8,00.0,31.5,24.2,10.6,0000.0,0009.22,0003.71,0003.30
2022-01-17 11:27:00,,0822.4,4.98,0.00,22.4,21.7,00.0,31.5,24.1,10.6,0000.0,0009.98,0003.71,0003.30
2022-01-17 11:28:00,,0822.5,5.01,0.00,22.4,21.7,00.0,31.5,24.1,10.6,0000.0,0010.14,0003.71,0003.28
2022-01-17 11:29:00,,0822.6,5.00,0.00,22.4,21.6,00.0,31.5,24.1,10.7,0000.0,0010.06,0003.68,0003.27
2022-01-17 11:30:00,,0822.6,5.00,0.00,22.4,21.6,00.0,31.4,24.1,10.7,0000.0,0010.06,0003.66,0003.26
2022-01-17 11:31:00,,0822.5,4.99,0.00,22.3,21.6,00.0,31.4,24.0,10.6,0000.0,0010.23,0003.64,0003.24
2022-01-17 11:32:00,,0822.4,5.02,0.00,22.3,21.6,00.0,31.4,24.0,10.5,0000.0,0009.77,0003.59,0003.19
2022-01-17 11:33:00,,0822.6,5.00,0.00,22.3,21.5,00.0,31.4,24.0,10.5,0000.0,0009.53,0003.55,0003.16
2022-01-17 11:34:00,,0822.5,5.01,0.00,22.3,21.6,00.0,31.4,24.0,10.7,0000.0,0009.26,0003.51,0003.14
2022-01-17 11:35:00,,0822.6,4.99,0.00,22.3,22.2,00.0,31.4,24.1,10.6,0000.0,0009.24,0003.49,0003.13
2022-01-17 11:36:00,,0822.5,5.00,0.00,22.5,23.0,00.0,31.4,24.4,10.6,0000.0,0009.13,0003.45,0003.12
2022-01-17 11:37:00,,0822.4,5.01,0.00,22.6,23.3,00.0,31.5,24.6,10.5,0000.0,0008.42,0003.45,0003.11
2022-01-17 11:38:00,,0822.5,4.98,0.00,22.7,23.1,00.0,31.5,24.6,10.4,0000.0,0007.21,0003.44,0003.09
2022-01-17 11:39:00,,0822.7,5.00,0.00,22.6,22.8,00.0,31.5,24.5,10.4,0000.0,0007.18,0003.40,0003.06
2022-01-17 11:40:00,,0822.7,5.00,0.00,22.6,22.6,00.0,31.5,24.4,10.6,0000.0,0008.07,0003.40,0003.05
2022-01-17 11:41:00,,0822.6,5.01,0.00,22.6,22.5,00.0,31.5,24.4,10.5,0000.0,0008.25,0003.40,0003.03
2022-01-17 11:42:00,,0822.5,4.99,0.00,22.6,22.3,00.0,31.5,24.3,10.4,0000.0,0008.07,0003.38,0003.00
2022-01-17 11:43:00,,0822.5,4.98,0.00,22.5,22.1,00.0,31.5,24.2,10.5,0000.0,0008.04,0003.42,0003.04
2022-01-17 11:44:00,,0822.5,5.01,0.00,22.5,22.0,00.0,31.5,24.2,10.6,0000.0,0007.70,0003.45,0003.08
2022-01-17 11:45:00,,0822.5,4.99,0.00,22.5,22.0,00.0,31.5,24.3,10.6,0000.0,0007.67,0003.46,0003.07
2022-01-17 11:46:00,,0822.5,5.01,0.00,22.5,21.9,00.0,31.5,24.2,10.5,0000.0,0007.64,0003.46,0003.05
2022-01-17 11:47:00,,0822.5,5.00,0.00,22.5,21.9,00.0,31.5,24.2,10.5,0000.0,0007.64,0003.43,0003.02
2022-01-17 11:48:00,,0822.6,4.99,0.00,22.4,21.8,00.0,31.5,24.2,10.6,0000.0,0007.56,0003.41,0003.03
2022-01-17 11:49:00,,0822.6,5.00,0.00,22.4,21.8,00.0,31.5,24.2,10.6,0000.0,0007.67,0003.44,0003.05
2022-01-17 11:50:00,,0822.7,5.01,0.00,22.4,21.8,00.0,31.5,24.2,10.6,0000.0,0007.49,0003.46,0003.09
2022-01-17 11:51:00,,0822.7,4.99,0.00,22.4,21.8,00.0,31.5,24.1,10.6,0000.0,0007.37,0003.48,0003.11
2022-01-17 11:52:00,,0822.5,5.00,0.00,22.4,21.7,00.0,31.5,24.0,10.6,0000.0,0007.47,0003.51,0003.14
2022-01-17 11:53:00,,0822.5,5.01,0.00,22.3,21.6,00.0,31.4,24.0,10.6,0000.0,0008.42,0003.53,0003.15
2022-01-17 11:54:00,,0822.6,4.99,0.00,22.3,21.6,00.0,31.4,24.0,10.6,0000.0,0008.97,0003.54,0003.16
2022-01-17 11:55:00,,0822.6,5.02,0.00,22.3,21.6,00.0,31.4,24.0,10.7,0000.0,0008.91,0003.54,0003.18
2022-01-17 11:56:00,,0822.7,4.99,0.00,22.3,21.6,00.0,31.4,24.0,10.7,0000.0,0009.00,0003.55,0003.18
2022-01-17 11:57:00,,0822.6,4.99,0.00,22.3,21.6,00.0,31.4,24.0,10.7,0000.0,0009.06,0003.57,0003.19
2022-01-17 11:58:00,,0822.5,5.00,0.00,22.3,21.6,00.0,31.3,24.0,10.7,0000.0,0008.98,0003.58,0003.21
2022-01-17 11:59:00,,0822.6,5.01,0.00,22.3,21.6,00.0,31.3,24.0,10.7,0000.0,0009.02,0003.57,0003.21
